Погода в Устиново

Россия / Челябинская область     54°49′28″N   59°58′40″E
темп.,
°C
ветер,
м/с
пор.,
м/с
влажн.,
%
обл.,
%
осадки,
мм/ч
давл.,
гПа
погр.,
м
7 мая, пт
пт723:00+6з22740 0.0 101910
02:00+5зюз22835 0.0 102010
05:00+4зюз11860 0.0 102110
08:00+9юз23695 0.0 1021262
11:00+14ююз44455 0.0 10211036
14:00+17ююз33325 0.0 10201551
17:00+18ю33285 0.0 10191728
20:00+14ю33435 0.0 101822
8 мая, сб
сб823:00+10ююз224899 0.0 101910
02:00+9ююз1151100 0.0 101910
05:00+8юз1153100 0.0 101910
08:00+12ю1148100 0.0 1019131
11:00+15ююв2239100 0.0 1018721
14:00+19ю113294 0.0 10172250
17:00+19в232897 0.0 10162524
20:00+14в3545100 0.0 101671
9 мая, вс
вс923:00+12с1142100 0.0 101610
02:00+10с2248100 0.0 101620
05:00+10с225093 0.0 101728
08:00+12ссв3550100 0.0 1017226
11:00+17св4638100 0.0 10161404
14:00+18всв4533100 0.0 10162544
17:00+17всв664099 0.0 10171823
20:00+14св335791 0.0 101851
10 мая, пн
пн1023:00+11с3460100 0.0 101957
02:00+12с2257100 0.0 101946
05:00+9ссв22665 0.0 102122
08:00+13с23575 0.0 1022208
11:00+18всв46425 0.0 10221863
14:00+20всв553492 0.0 10222637
17:00+20всв45345 0.0 10222024
20:00+17всв224893 0.0 102322
11 мая, вт
вт1123:00+12зсз005610 0.0 102410
02:00+11з1161100 0.0 102410
05:00+10зюз2263100 0.0 102410
08:00+15зюз2353100 0.0 1024147
11:00+19сз5643100 0.0 10241445
14:00+17сз3551100 0.1 1024886
17:00+19ссз554813 0.1 10231628
20:00+15ссз47704 1.6 1024194